| time (UTC) | temp F | wind direction | speed knots | gust knots | rain 1hr in | rain 24hr in | rain mn in | humidity % | barometer mb |
| 20260901054558 | 59 | 275 | 0.0 | 2.6 | 0.00 | 0.00 | 0.00 | 61 | 1008.1 |
| 20260901053055 | 59 | 144 | 0.0 | 0.9 | 0.00 | 0.00 | 0.00 | 60 | 1008.2 |
| 20260901051555 | 60 | 144 | 0.0 | 0.0 | 0.00 | 0.00 | 0.00 | 59 | 1008.3 |
| 20260901050054 | 61 | 144 | 0.0 | 0.0 | 0.00 | 0.00 | 0.00 | 57 | 1008.3 |
| 20260901044559 | 62 | 144 | 0.0 | 0.0 | 0.00 | 0.00 | 0.00 | 56 | 1008.4 |
| 20260901043053 | 62 | 144 | 0.0 | 0.9 | 0.00 | 0.00 | 0.00 | 55 | 1008.3 |
| 20260901041551 | 63 | 138 | 0.0 | 2.6 | 0.00 | 0.00 | 0.00 | 54 | 1008.3 |
| 20260901040052 | 63 | 79 | 0.0 | 1.7 | 0.00 | 0.00 | 0.00 | 53 | 1008.3 |
| 20260901034550 | 64 | 121 | 0.0 | 1.7 | 0.00 | 0.00 | 0.00 | 52 | 1008.1 |
| 20260901033109 | 65 | 165 | 0.0 | 3.5 | 0.00 | 0.00 | 0.00 | 51 | 1007.9 |
| 20260901031549 | 66 | 137 | 0.0 | 1.7 | 0.00 | 0.00 | 0.00 | 50 | 1007.8 |
| 20260901030058 | 67 | 266 | 0.9 | 3.5 | 0.00 | 0.00 | 0.00 | 48 | 1007.7 |
| 20260901024549 | 68 | 100 | 0.0 | 2.6 | 0.00 | 0.00 | 0.00 | 46 | 1007.7 |
| 20260901023049 | 68 | 157 | 0.0 | 1.7 | 0.00 | 0.00 | 0.00 | 45 | 1007.8 |
| 20260901021559 | 68 | 150 | 0.9 | 4.3 | 0.00 | 0.00 | 0.00 | 45 | 1007.8 |
| 20260901020046 | 69 | 35 | 0.9 | 3.5 | 0.00 | 0.00 | 0.00 | 46 | 1007.9 |
| 20260901014545 | 69 | 258 | 0.9 | 3.5 | 0.00 | 0.00 | 0.00 | 47 | 1007.9 |
| 20260901013052 | 69 | 320 | 0.0 | 5.2 | 0.00 | 0.00 | 0.00 | 47 | 1007.8 |
| 20260901011607 | 70 | 320 | 0.9 | 7.0 | 0.00 | 0.00 | 0.00 | 46 | 1008.0 |
| 20260901010042 | 70 | 196 | 0.9 | 4.3 | 0.00 | 0.00 | 0.00 | 44 | 1008.1 |
| 20260901004542 | 71 | 319 | 0.9 | 3.5 | 0.00 | 0.00 | 0.00 | 44 | 1008.1 |
| 20260901003047 | 71 | 85 | 2.6 | 8.7 | 0.00 | 0.00 | 0.00 | 43 | 1008.1 |
| 20260901001539 | 73 | 148 | 0.9 | 7.0 | 0.00 | 0.00 | 0.00 | 42 | 1008.3 |
| 20260901000036 | 73 | 46 | 2.6 | 7.0 | 0.00 | 0.00 | 0.00 | 40 | 1008.4 |
| 20260831234536 | 74 | 103 | 0.9 | 7.0 | 0.00 | 0.00 | 0.00 | 41 | 1008.5 |
| 20260831233036 | 75 | 107 | 1.7 | 7.8 | 0.00 | 0.00 | 0.00 | 40 | 1008.6 |
| 20260831231533 | 74 | 148 | 0.9 | 7.8 | 0.00 | 0.00 | 0.00 | 43 | 1008.7 |
| 20260831230031 | 74 | 63 | 0.9 | 4.3 | 0.00 | 0.00 | 0.00 | 41 | 1008.9 |
| 20260831224529 | 73 | 101 | 1.7 | 11.3 | 0.00 | 0.00 | 0.00 | 40 | 1009.0 |
| 20260831223036 | 73 | 279 | 1.7 | 6.1 | 0.00 | 0.00 | 0.00 | 41 | 1009.1 |
| 20260831221526 | 75 | 51 | 2.6 | 6.1 | 0.00 | 0.00 | 0.00 | 39 | 1009.2 |
| 20260831220028 | 74 | 243 | 0.9 | 7.0 | 0.00 | 0.00 | 0.00 | 39 | 1009.5 |
| 20260831214523 | 75 | 316 | 1.7 | 7.0 | 0.00 | 0.00 | 0.00 | 38 | 1009.7 |
| 20260831213022 | 75 | 242 | 0.9 | 10.4 | 0.00 | 0.00 | 0.00 | 39 | 1009.9 |
| 20260831211532 | 75 | 355 | 2.6 | 9.6 | 0.00 | 0.00 | 0.00 | 37 | 1010.0 |
| 20260831210017 | 74 | 325 | 2.6 | 8.7 | 0.00 | 0.00 | 0.00 | 39 | 1010.3 |
| 20260831204515 | 74 | 49 | 2.6 | 9.6 | 0.00 | 0.00 | 0.00 | 38 | 1010.5 |
| 20260831203012 | 74 | 267 | 2.6 | 10.4 | 0.00 | 0.00 | 0.00 | 35 | 1010.8 |
| 20260831201509 | 74 | 230 | 1.7 | 8.7 | 0.00 | 0.00 | 0.00 | 39 | 1010.8 |
| 20260831200006 | 73 | 179 | 1.7 | 9.6 | 0.00 | 0.00 | 0.00 | 41 | 1010.9 |
| 20260831194503 | 73 | 236 | 2.6 | 6.1 | 0.00 | 0.00 | 0.00 | 43 | 1011.0 |
| 20260831193000 | 71 | 17 | 1.7 | 7.0 | 0.00 | 0.00 | 0.00 | 44 | 1011.2 |
| 20260831191557 | 71 | 173 | 1.7 | 7.0 | 0.00 | 0.00 | 0.00 | 43 | 1011.4 |
| 20260831190108 | 71 | 54 | 1.7 | 7.8 | 0.00 | 0.00 | 0.00 | 45 | 1011.4 |
| 20260831184552 | 70 | 325 | 1.7 | 9.6 | 0.00 | 0.00 | 0.00 | 48 | 1011.7 |
| 20260831183051 | 69 | 57 | 0.9 | 5.2 | 0.00 | 0.00 | 0.00 | 50 | 1012.1 |
| 20260831181552 | 68 | 36 | 1.7 | 6.1 | 0.00 | 0.00 | 0.00 | 50 | 1012.1 |
| 20260831180054 | 68 | 180 | 1.7 | 7.8 | 0.00 | 0.00 | 0.00 | 51 | 1012.4 |
| 20260831174540 | 67 | 113 | 1.7 | 9.6 | 0.00 | 0.00 | 0.00 | 53 | 1012.5 |
| 20260831173038 | 66 | 328 | 0.9 | 7.0 | 0.00 | 0.00 | 0.00 | 54 | 1012.8 |
| 20260831171534 | 66 | 88 | 1.7 | 6.1 | 0.00 | 0.00 | 0.00 | 56 | 1012.9 |
| 20260831170030 | 64 | 138 | 0.9 | 7.8 | 0.00 | 0.00 | 0.00 | 57 | 1012.7 |
| 20260831164528 | 63 | 43 | 0.9 | 7.0 | 0.00 | 0.00 | 0.00 | 59 | 1012.8 |
| 20260831163025 | 62 | 65 | 0.9 | 4.3 | 0.00 | 0.00 | 0.00 | 63 | 1012.8 |
| 20260831161522 | 60 | 295 | 0.0 | 6.1 | 0.00 | 0.00 | 0.00 | 63 | 1013.0 |
| 20260831160016 | 60 | 309 | 0.0 | 4.3 | 0.00 | 0.00 | 0.00 | 64 | 1013.1 |
| 20260831154514 | 59 | 150 | 0.0 | 4.3 | 0.00 | 0.00 | 0.00 | 65 | 1013.4 |
| 20260831153010 | 58 | 325 | 0.9 | 5.2 | 0.00 | 0.00 | 0.00 | 66 | 1013.3 |
| 20260831151608 | 57 | 73 | 0.0 | 2.6 | 0.00 | 0.00 | 0.00 | 68 | 1013.3 |
| 20260831150005 | 56 | 189 | 0.0 | 4.3 | 0.00 | 0.00 | 0.00 | 74 | 1013.2 |
| 20260831144504 | 55 | 53 | 0.0 | 2.6 | 0.00 | 0.00 | 0.00 | 76 | 1013.3 |
| 20260831143004 | 54 | 125 | 0.0 | 3.5 | 0.00 | 0.00 | 0.00 | 76 | 1013.3 |
| 20260831141502 | 54 | 116 | 0.0 | 2.6 | 0.00 | 0.00 | 0.00 | 76 | 1013.2 |
| 20260831140002 | 54 | 96 | 0.0 | 2.6 | 0.00 | 0.00 | 0.00 | 75 | 1013.2 |
| 20260831134501 | 54 | 115 | 0.0 | 0.9 | 0.00 | 0.00 | 0.00 | 75 | 1013.2 |
| 20260831133001 | 54 | 159 | 0.0 | 1.7 | 0.00 | 0.00 | 0.00 | 74 | 1013.1 |
| 20260831131604 | 54 | 271 | 0.0 | 1.7 | 0.00 | 0.00 | 0.00 | 74 | 1013.1 |
| 20260831130059 | 54 | 284 | 0.9 | 4.3 | 0.00 | 0.00 | 0.00 | 75 | 1013.2 |
| 20260831124557 | 54 | 63 | 0.9 | 3.5 | 0.00 | 0.00 | 0.00 | 76 | 1013.5 |
| 20260831123055 | 54 | 154 | 0.0 | 2.6 | 0.00 | 0.00 | 0.00 | 76 | 1013.5 |
| 20260831121554 | 55 | 279 | 0.0 | 2.6 | 0.00 | 0.00 | 0.00 | 77 | 1013.7 |
| 20260831120053 | 55 | 30 | 0.0 | 3.5 | 0.00 | 0.00 | 0.00 | 78 | 1013.7 |
| 20260831114552 | 54 | 243 | 0.0 | 2.6 | 0.00 | 0.00 | 0.00 | 78 | 1013.9 |
| 20260831113052 | 54 | 280 | 0.0 | 3.5 | 0.00 | 0.00 | 0.00 | 78 | 1014.1 |
| 20260831111559 | 54 | 290 | 0.0 | 2.6 | 0.00 | 0.00 | 0.00 | 78 | 1014.3 |
| 20260831110047 | 53 | 126 | 0.0 | 1.7 | 0.00 | 0.00 | 0.00 | 74 | 1014.2 |
| 20260831104548 | 53 | 109 | 0.0 | 0.9 | 0.00 | 0.00 | 0.00 | 74 | 1014.4 |
| 20260831103044 | 54 | 5 | 0.0 | 0.9 | 0.00 | 0.00 | 0.00 | 74 | 1014.4 |
| 20260831101550 | 53 | 254 | 0.0 | 0.9 | 0.00 | 0.00 | 0.00 | 71 | 1014.5 |
| 20260831100040 | 53 | 254 | 0.0 | 0.9 | 0.00 | 0.00 | 0.00 | 70 | 1014.7 |
| 20260831094538 | 54 | 254 | 0.0 | 0.9 | 0.00 | 0.00 | 0.00 | 70 | 1015.0 |
| 20260831093039 | 54 | 254 | 0.0 | 1.7 | 0.00 | 0.00 | 0.00 | 69 | 1015.2 |
| 20260831091551 | 54 | 254 | 0.0 | 1.7 | 0.00 | 0.00 | 0.00 | 68 | 1015.1 |
| 20260831090032 | 54 | 273 | 0.0 | 0.9 | 0.00 | 0.00 | 0.00 | 68 | 1015.4 |
| 20260831084529 | 55 | 273 | 0.0 | 0.0 | 0.00 | 0.00 | 0.00 | 68 | 1015.5 |
| 20260831083028 | 55 | 273 | 0.0 | 0.9 | 0.00 | 0.00 | 0.00 | 68 | 1015.4 |
| 20260831081535 | 56 | 271 | 0.0 | 1.7 | 0.00 | 0.00 | 0.00 | 67 | 1015.8 |
| 20260831080140 | 56 | 271 | 0.0 | 0.9 | 0.00 | 0.00 | 0.00 | 68 | 1015.9 |
| 20260831074524 | 56 | 288 | 0.0 | 0.9 | 0.00 | 0.00 | 0.00 | 67 | 1015.8 |
| 20260831073052 | 56 | 275 | 0.0 | 0.9 | 0.00 | 0.00 | 0.00 | 67 | 1015.9 |
| 20260831071519 | 56 | 275 | 0.0 | 0.0 | 0.00 | 0.00 | 0.00 | 67 | 1016.0 |
| 20260831070017 | 56 | 275 | 0.0 | 0.9 | 0.00 | 0.00 | 0.00 | 67 | 1016.2 |
| 20260831064516 | 56 | 275 | 0.0 | 1.7 | 0.00 | 0.00 | 0.00 | 67 | 1016.5 |
| 20260831063023 | 56 | 59 | 0.0 | 0.9 | 0.00 | 0.00 | 0.00 | 67 | 1016.5 |
| 20260831061513 | 57 | 5 | 0.0 | 0.0 | 0.00 | 0.00 | 0.00 | 66 | 1016.6 |
| 20260831060014 | 57 | 5 | 0.0 | 1.7 | 0.00 | 0.00 | 0.00 | 65 | 1016.8 |